{"data":{"norad_id":57104,"intl_designator":"2023-090D","name":"STARLINK-6130","alt_names":[],"object_type":"PAYLOAD","status":"ACTIVE","operator":null,"country":"US","launch_date":"2023-06-23","launch_site_code":"AFETR","launch_vehicle":null,"mission":null,"orbit_class":"UNKNOWN","rcs_meters":null,"size_class":null,"mass_kg":null,"dimensions":null,"purposes":["comms"],"wikipedia_slug":null,"has_3d_model":false,"image_url":null,"decayed_at":null,"tle_current":{"epoch":"2026-05-25T05:00:30.955968Z","epoch_age_seconds":53168,"freshness":"FRESH","line1":"1 57104U 23090D   26145.20869162 -.00001958  00000+0 -61656-4 0  9995","line2":"2 57104  43.0022 209.5308 0001491 278.8323  81.2359 15.27569870162024","mean_motion":15.2756987,"eccentricity":0.0001491,"inclination_deg":43.0022,"raan_deg":209.5308,"arg_perigee_deg":278.8323,"mean_anomaly_deg":81.2359,"bstar":-6.1656e-5,"rev_number":16202,"period_min":94.267373838684,"perigee_km":482.05642170195,"apogee_km":484.1024364411,"semimajor_km":6861.2164290715,"source":"CELESTRAK","updated_at":"2026-05-25T13:38:18.219349Z"}}}